Flag for Germany Weather past 2 weeks in Gevelsberg, North Rhine-Westphalia, Germany

Now
46 °F

Passing clouds.


Feels Like: 39 °F
Forecast: 38 / 48 °F
Wind: 17 mph from West

Location: Dortmund / Wickede

Current Time: Mar 30, 2015 at 2:41:28 AM

Latest Report: Mar 29, 2015 at 10:50 PM


Visibility: N/A

Pressure: 29.33 "Hg

Humidity: 71%

Dew point: 37 °F

Location of GevelsbergLocation

Historic Weather in Gevelsberg — Graph

°F

Gevelsberg temperature yesterday

Maximum temperature yesterday: 52 °F (at 5:50 PM)
Minimum temperature yesterday: 46 °F (at 8:50 PM)
Average temperature yesterday: 49 °F

Past Weeks' High & Low Weather Summary

 TemperatureHumidityPressure
High61 °F (Mar 17, 2:50 PM)93% (Mar 14, 9:20 PM)30.36 "Hg (Mar 14, 9:20 PM)
Low28 °F (Mar 23, 5:20 AM)39% (Mar 17, 3:20 PM)29.21 "Hg (Mar 29, 7:20 PM)
Average44 °F75%30.03 "Hg
* Reported Mar 14 9:20 PM — Mar 29 10:50 PM, Gevelsberg, Weather by CustomWeather, © 2015

Note: Actual official high and low records may vary slightly from our data, if they occured in-between our weather recording intervals... More about our weather records

Advertising

Gevelsberg weather history for previous 24 hours

 ConditionsComfort  
Time TempWeatherWind HumidityBarometerVisibility
10:50 PM
Sun, Mar 29
46 °FPassing clouds.17 mph71%29.33 "HgN/A
10:20 PM46 °FPassing clouds.20 mph76%29.30 "HgN/A
9:50 PM48 °FPassing clouds.17 mph76%29.27 "HgN/A
9:20 PM48 °FPassing clouds.21 mph76%29.27 "HgN/A
8:50 PM46 °FLight rain. Partly sunny.24 mph82%29.24 "HgN/A
8:20 PM52 °FThundershowers. Partly sunny.28 mph77%29.21 "Hg6 mi
7:50 PM52 °FLight rain. Partly sunny.30 mph77%29.21 "HgN/A
7:20 PM52 °FLight rain. Broken clouds.32 mph82%29.21 "HgN/A
6:50 PM52 °FLight rain. Broken clouds.28 mph82%29.24 "Hg4 mi
6:20 PM52 °FLight rain. Partly sunny.29 mph82%29.24 "Hg3 mi
5:50 PM52 °FLight rain. Partly sunny.25 mph82%29.27 "Hg3 mi
5:20 PM50 °FLight rain. Partly sunny.24 mph88%29.30 "Hg4 mi
4:50 PM50 °FPartly sunny.21 mph88%29.33 "HgN/A
4:20 PM50 °FLight rain. Partly sunny.21 mph88%29.33 "Hg6 mi
3:50 PM50 °FBroken clouds.21 mph88%29.39 "HgN/A
3:20 PM50 °FLight rain. Partly sunny.23 mph82%29.39 "HgN/A
2:50 PM50 °FLight rain. Partly sunny.18 mph82%29.45 "HgN/A
2:20 PM50 °FLight rain. Partly sunny.17 mph82%29.47 "HgN/A
1:50 PM48 °FLight rain. Partly sunny.17 mph87%29.50 "HgN/A
1:20 PM48 °FLight rain. Partly sunny.22 mph82%29.50 "HgN/A
12:50 PM48 °FLight rain. Partly sunny.17 mph87%29.53 "HgN/A
12:20 PM48 °FLight rain. Partly sunny.20 mph87%29.56 "HgN/A
11:50 AM48 °FLight rain. Broken clouds.18 mph82%29.56 "HgN/A
11:20 AM48 °FDrizzle. Partly sunny.20 mph87%29.59 "HgN/A
10:50 AM48 °FDrizzle. Broken clouds.18 mph82%29.59 "HgN/A
10:20 AM48 °FLight rain. Partly sunny.21 mph76%29.62 "Hg6 mi
9:50 AM48 °FDrizzle. Partly sunny.20 mph76%29.62 "HgN/A
9:20 AM48 °FSprinkles. Partly sunny.21 mph76%29.62 "Hg6 mi
8:50 AM50 °FSprinkles. Partly sunny.23 mph67%29.62 "Hg6 mi
8:20 AM50 °FPartly sunny.22 mph71%29.62 "HgN/A
7:50 AM50 °FPassing clouds.20 mph71%29.65 "HgN/A
7:20 AM50 °FPassing clouds.21 mph71%29.65 "HgN/A
6:50 AM50 °FPassing clouds.21 mph71%29.65 "HgN/A
6:20 AM50 °FSprinkles. Partly cloudy.23 mph76%29.65 "HgN/A
5:50 AM50 °FPassing clouds.24 mph76%29.65 "HgN/A
5:20 AM50 °FPassing clouds.23 mph76%29.68 "HgN/A
Weather by CustomWeather, © 2015

See weather overviewHow to use our weather pages